period_start,C,m1,H,J0,J1,J2,J3,J4,J5,JA,JB,JC,JD,JJ,JK,JN,#
2014-12-20 00:01:40,0.13,3.58,0.00,22.22,27.02,30.28,4.93,26.90,1024.94,2029.99,2271.30,2415.47,2620.81,350.91,352.40,24.85,0000 0000 0000 0000 000000
2014-12-20 00:06:41,0.11,3.58,0.00,22.24,27.02,30.27,4.83,27.07,1024.93,2029.99,2270.31,2414.77,2619.98,350.13,351.59,24.88,0000 0000 0000 0000 000000
2014-12-20 00:11:42,0.13,3.59,0.00,22.24,27.02,30.28,4.88,27.13,1024.92,2029.99,2269.31,2414.01,2619.10,349.87,351.33,24.90,0000 0000 0000 0000 000000
2014-12-20 00:16:43,0.14,3.59,0.00,22.23,27.02,30.27,4.85,27.00,1024.92,2029.99,2268.37,2413.22,2618.44,349.54,351.08,24.93,0000 0000 0000 0000 000000
2014-12-20 00:21:44,0.10,3.59,0.00,22.21,27.02,30.25,4.96,26.97,1024.92,2029.98,2267.63,2412.70,2617.69,350.55,352.08,24.96,0000 0000 0000 0000 000000
2014-12-20 00:26:46,0.10,3.60,0.00,22.21,27.02,30.26,4.85,26.89,1024.92,2029.99,2266.51,2411.99,2616.95,349.54,351.08,24.99,0000 0000 0000 0000 000000
2014-12-20 00:31:47,0.11,3.60,0.00,22.19,27.02,30.27,4.76,27.00,1024.92,2029.99,2265.86,2411.22,2616.09,349.19,350.86,25.02,0000 0000 0000 0000 000000
2014-12-20 00:36:48,0.11,3.60,0.00,22.17,27.02,30.24,4.90,26.95,1024.92,2029.99,2264.97,2410.72,2615.40,350.27,351.72,25.05,0000 0000 0000 0000 000000
2014-12-20 00:41:49,0.11,3.61,0.00,22.19,27.01,30.26,4.79,27.00,1024.91,2029.99,2264.05,2410.01,2614.76,349.86,351.36,25.08,0000 0000 0000 0000 000000
2014-12-20 00:46:51,0.13,3.61,0.00,22.15,27.00,30.26,4.84,26.88,1024.89,2029.99,2263.21,2409.27,2614.01,349.81,351.35,25.11,0000 0000 0000 0000 000000
2014-12-20 00:51:52,0.12,3.61,0.00,22.13,27.00,30.22,4.79,27.02,1024.90,2029.99,2262.21,2408.71,2613.20,349.93,351.64,25.14,0000 0000 0000 0000 000000
2014-12-20 00:56:53,0.11,3.62,0.00,22.14,27.00,30.25,4.76,26.93,1024.87,2029.99,2261.18,2407.97,2612.61,349.73,351.14,25.17,0000 0000 0000 0000 000000
2014-12-20 01:01:55,0.13,3.62,0.00,22.09,27.00,30.25,4.86,26.91,1024.88,2029.98,2260.13,2407.13,2611.91,350.03,351.62,25.20,0000 0000 0000 0000 000000
2014-12-20 01:06:56,0.13,3.62,0.00,22.09,27.00,30.25,4.87,26.97,1024.73,2029.99,2259.27,2406.65,2611.06,350.44,351.90,25.23,0000 0000 0000 0000 000000
2014-12-20 01:11:57,0.11,3.63,0.00,22.10,27.00,30.23,4.78,26.88,1024.55,2029.99,2258.30,2405.96,2610.38,349.58,351.09,25.26,0000 0000 0000 0000 000000
2014-12-20 01:16:58,0.13,3.63,0.00,22.12,26.99,30.22,4.94,27.16,1024.48,2029.99,2257.53,2405.11,2609.69,350.51,351.99,25.29,0000 0000 0000 0000 000000
2014-12-20 01:22:00,0.13,3.63,0.00,22.08,26.97,30.21,4.92,27.23,1024.47,2029.99,2256.62,2404.50,2608.86,350.45,351.96,25.32,0000 0000 0000 0000 000000
2014-12-20 01:27:01,0.08,3.64,0.00,22.05,26.97,30.20,4.84,27.02,1024.44,2029.99,2255.75,2403.92,2608.04,349.92,351.32,25.34,0000 0000 0000 0000 000000
2014-12-20 01:32:03,0.14,3.64,0.00,22.05,26.97,30.22,4.93,26.99,1024.43,2029.98,2254.81,2403.08,2607.25,350.01,351.37,25.37,0000 0000 0000 0000 000000
2014-12-20 01:37:04,0.12,3.65,0.00,22.03,26.97,30.23,4.79,26.88,1024.43,2029.99,2253.87,2402.48,2606.76,349.78,351.25,25.40,0000 0000 0000 0000 000000
2014-12-20 01:42:05,0.08,3.65,0.00,22.05,26.95,30.20,4.84,26.93,1024.43,2029.99,2252.97,2401.93,2606.01,350.18,351.35,25.43,0000 0000 0000 0000 000000
2014-12-20 01:47:06,0.14,3.65,0.00,22.04,26.95,30.20,4.90,26.83,1024.43,2029.99,2252.10,2401.17,2605.31,350.40,351.84,25.46,0000 0000 0000 0000 000000
2014-12-20 01:52:07,0.12,3.66,0.00,22.02,26.95,30.21,4.86,26.92,1024.43,2029.99,2251.15,2400.64,2604.72,350.05,351.54,25.49,0000 0000 0000 0000 000000
2014-12-20 01:57:09,0.09,3.66,0.00,22.00,26.94,30.16,4.87,26.87,1024.43,2030.00,2250.19,2400.01,2604.04,350.02,351.66,25.52,0000 0000 0000 0000 000000
2014-12-20 02:02:10,0.15,3.66,0.00,21.96,26.92,30.14,4.92,26.94,1024.43,2030.01,2249.20,2399.24,2603.28,350.12,351.63,25.55,0000 0000 0000 0000 000000
2014-12-20 02:07:11,0.11,3.67,0.00,21.97,26.92,30.15,4.83,26.93,1024.42,2030.01,2248.33,2398.68,2602.77,350.11,351.34,25.58,0000 0000 0000 0000 000000
2014-12-20 02:12:12,0.06,3.67,0.00,21.93,26.92,30.13,4.89,26.82,1024.42,2030.01,2247.98,2398.03,2601.97,350.09,351.71,25.61,0000 0000 0000 0000 000000
2014-12-20 02:17:14,0.16,3.67,0.00,21.94,26.90,30.10,4.79,26.80,1024.42,2030.01,2247.00,2397.46,2601.11,349.56,351.19,25.64,0000 0000 0000 0000 000000
2014-12-20 02:22:15,0.09,3.68,0.00,21.95,26.90,30.09,4.93,26.83,1024.42,2030.03,2245.80,2396.91,2600.74,349.80,351.38,25.67,0000 0000 0000 0000 000000
2014-12-20 02:27:16,0.11,3.68,0.00,21.90,26.90,30.09,4.89,26.99,1024.40,2030.05,2244.92,2396.10,2600.02,349.82,351.34,25.70,0000 0000 0000 0000 000000
2014-12-20 02:32:18,0.14,3.68,0.00,21.93,26.89,30.09,4.74,26.95,1024.32,2030.12,2244.05,2395.57,2599.35,349.39,351.00,25.73,0000 0000 0000 0000 000000
2014-12-20 02:37:19,0.08,3.69,0.00,21.92,26.87,30.11,4.85,26.99,1024.32,2030.20,2243.22,2394.94,2598.74,349.77,351.38,25.75,0000 0000 0000 0000 000000
2014-12-20 02:42:21,0.13,3.69,0.00,21.93,26.87,30.09,4.86,26.99,1024.37,2030.11,2242.25,2394.10,2597.98,349.92,351.57,25.78,0000 0000 0000 0000 000000
2014-12-20 02:47:22,0.16,3.70,0.00,21.90,26.86,30.06,4.85,26.87,1024.20,2030.23,2241.37,2393.58,2597.15,349.65,351.29,25.81,0000 0000 0000 0000 000000
2014-12-20 02:52:23,0.12,3.70,0.00,21.89,26.85,30.07,4.87,26.96,1024.22,2030.26,2240.45,2392.97,2596.50,350.50,352.15,25.84,0000 0000 0000 0000 000000
2014-12-20 02:57:24,0.15,3.70,0.00,21.88,26.85,30.05,4.78,27.02,1024.17,2030.49,2239.52,2392.13,2595.97,349.43,351.11,25.87,0000 0000 0000 0000 000000
2014-12-20 03:02:26,0.10,3.71,0.00,21.89,26.85,30.02,4.88,26.90,1024.05,2030.64,2239.00,2391.70,2595.16,349.90,351.31,25.90,0000 0000 0000 0000 000000
2014-12-20 03:07:27,0.13,3.71,0.00,21.86,26.83,30.01,4.81,26.97,1023.99,2030.73,2238.50,2391.02,2594.36,349.78,351.35,25.93,0000 0000 0000 0000 000000
2014-12-20 03:12:28,0.17,3.72,0.00,21.82,26.82,30.01,4.91,26.93,1023.97,2030.82,2237.45,2390.36,2593.76,350.33,352.01,25.96,0000 0000 0000 0000 000000
2014-12-20 03:17:30,0.07,3.72,0.00,21.81,26.82,30.00,4.86,27.00,1023.97,2030.80,2236.64,2389.85,2593.02,350.36,352.12,25.99,0000 0000 0000 0000 000000
2014-12-20 03:22:31,0.14,3.72,0.00,21.79,26.80,29.98,4.80,26.93,1023.96,2030.88,2235.85,2389.09,2592.29,349.95,351.78,26.02,0000 0000 0000 0000 000000
2014-12-20 03:27:32,0.10,3.73,0.00,21.78,26.80,29.98,4.79,26.87,1023.95,2030.90,2234.96,2388.69,2591.82,349.88,351.50,26.05,0000 0000 0000 0000 000000
2014-12-20 03:32:34,0.10,3.73,0.00,21.79,26.79,29.96,4.82,27.05,1023.94,2030.93,2234.07,2388.01,2591.03,349.73,351.51,26.08,0000 0000 0000 0000 000000
2014-12-20 03:37:35,0.15,3.73,0.00,21.78,26.77,29.96,4.84,27.05,1023.94,2030.93,2233.18,2387.28,2590.30,349.73,351.41,26.11,0000 0000 0000 0000 000000
2014-12-20 03:42:35,0.07,3.74,0.00,21.73,26.77,29.96,4.81,27.04,1023.94,2030.94,2232.18,2386.90,2589.89,349.64,351.41,26.14,0000 0000 0000 0000 000000
2014-12-20 03:47:37,0.14,3.74,0.00,21.75,26.75,29.96,4.84,27.07,1023.94,2030.98,2231.56,2386.09,2589.08,350.10,351.67,26.16,0000 0000 0000 0000 000000
2014-12-20 03:52:38,0.11,3.74,0.00,21.71,26.75,29.95,4.96,27.04,1023.94,2030.98,2230.75,2385.63,2588.41,350.63,352.36,26.19,0000 0000 0000 0000 000000
2014-12-20 03:57:39,0.06,3.75,0.00,21.76,26.72,29.91,4.92,27.05,1023.89,2030.98,2229.95,2385.01,2587.93,350.45,352.00,26.22,0000 0000 0000 0000 000000
2014-12-20 04:02:40,0.15,3.75,0.00,21.72,26.72,29.91,4.79,27.07,1023.79,2030.99,2229.02,2384.33,2587.13,349.20,350.83,26.25,0000 0000 0000 0000 000000
2014-12-20 04:07:42,0.09,3.75,0.00,21.72,26.71,29.90,4.83,26.93,1023.85,2030.98,2228.11,2383.90,2586.43,350.39,352.07,26.28,0000 0000 0000 0000 000000
2014-12-20 04:12:43,0.11,3.76,0.00,21.68,26.70,29.91,4.81,27.00,1023.89,2030.99,2227.56,2383.12,2585.98,350.07,351.81,26.31,0000 0000 0000 0000 000000
2014-12-20 04:17:44,0.09,3.76,0.00,21.72,26.68,29.87,4.90,27.04,1023.94,2030.99,2226.82,2382.82,2585.20,350.27,351.72,26.34,0000 0000 0000 0000 000000
2014-12-20 04:22:45,0.10,3.76,0.00,21.68,26.67,29.88,4.79,26.89,1023.94,2030.99,2225.90,2382.05,2584.87,349.26,350.99,26.37,0000 0000 0000 0000 000000
2014-12-20 04:27:47,0.10,3.76,0.00,21.69,26.66,29.86,4.79,26.89,1023.94,2031.01,2225.05,2381.74,2584.07,349.85,351.57,26.40,0000 0000 0000 0000 000000
2014-12-20 04:32:48,0.09,3.77,0.00,21.65,26.65,29.84,4.90,26.90,1023.94,2031.01,2224.40,2381.04,2583.79,350.31,352.14,26.43,0000 0000 0000 0000 000000
2014-12-20 04:37:49,0.11,3.77,0.00,21.64,26.64,29.83,4.92,27.07,1023.94,2031.01,2223.64,2380.61,2583.03,349.81,351.70,26.46,0000 0000 0000 0000 000000
2014-12-20 04:42:51,0.08,3.77,0.00,21.62,26.62,29.82,4.87,26.85,1023.93,2031.01,2222.91,2380.01,2582.28,349.60,351.35,26.49,0000 0000 0000 0000 000000
2014-12-20 04:47:52,0.10,3.78,0.00,21.59,26.62,29.81,4.87,26.77,1023.86,2031.04,2222.07,2379.60,2582.01,349.46,351.40,26.52,0000 0000 0000 0000 000000
2014-12-20 04:52:53,0.11,3.78,0.00,21.59,26.60,29.80,4.84,26.90,1023.77,2031.07,2221.20,2379.01,2581.39,349.99,351.84,26.55,0000 0000 0000 0000 000000
2014-12-20 04:57:55,0.13,3.78,0.00,21.59,26.60,29.78,4.85,26.86,1023.65,2031.12,2220.35,2378.40,2581.00,349.89,351.63,26.57,0000 0000 0000 0000 000000
2014-12-20 05:02:56,0.07,3.79,0.00,21.58,26.58,29.79,4.95,27.06,1023.55,2031.28,2219.88,2378.00,2580.36,349.91,351.41,26.60,0000 0000 0000 0000 000000
2014-12-20 05:07:57,0.15,3.79,0.00,21.57,26.57,29.78,4.82,27.02,1023.50,2031.50,2219.07,2377.49,2579.96,349.82,351.78,26.63,0000 0000 0000 0000 000000
2014-12-20 05:12:58,0.11,3.79,0.00,21.61,26.57,29.78,4.92,26.93,1023.52,2031.63,2218.73,2377.00,2579.17,350.13,351.90,26.66,0000 0000 0000 0000 000000
2014-12-20 05:17:59,0.12,3.80,0.00,21.56,26.56,29.75,4.90,27.04,1023.51,2031.83,2217.96,2376.58,2578.76,349.87,351.51,26.69,0000 0000 0000 0000 000000
2014-12-20 05:23:01,0.11,3.80,0.00,21.55,26.55,29.74,4.85,26.91,1023.55,2031.92,2217.18,2376.01,2578.04,349.87,351.43,26.72,0000 0000 0000 0000 000000
2014-12-20 05:28:02,0.11,3.80,0.00,21.55,26.54,29.75,4.85,26.89,1023.59,2031.96,2216.43,2375.59,2577.77,349.73,351.98,26.75,0000 0000 0000 0000 000000
2014-12-20 05:33:03,0.08,3.81,0.00,21.54,26.52,29.73,4.93,27.03,1023.74,2031.95,2215.69,2375.00,2577.04,349.90,351.75,26.78,0000 0000 0000 0000 000000
2014-12-20 05:38:04,0.15,3.81,0.00,21.50,26.52,29.69,4.85,27.10,1023.76,2031.96,2214.79,2374.28,2576.44,350.24,352.14,26.81,0000 0000 0000 0000 000000
2014-12-20 05:43:05,0.04,3.81,0.00,21.51,26.50,29.70,4.86,26.93,1023.79,2031.96,2214.03,2373.99,2575.98,350.20,351.94,26.84,0000 0000 0000 0000 000000
2014-12-20 05:48:07,0.09,3.81,0.00,21.49,26.50,29.70,4.82,26.93,1023.69,2031.99,2213.97,2373.42,2575.25,349.96,351.71,26.87,0000 0000 0000 0000 000000
2014-12-20 05:53:08,0.07,3.82,0.00,21.51,26.49,29.67,4.81,26.77,1023.65,2031.99,2213.16,2373.00,2574.81,349.97,351.88,26.90,0000 0000 0000 0000 000000
2014-12-20 05:58:09,0.14,3.82,0.00,21.51,26.47,29.68,4.83,26.94,1023.59,2031.99,2212.39,2372.33,2574.06,349.88,351.67,26.93,0000 0000 0000 0000 000000
2014-12-20 06:03:10,0.07,3.82,0.00,21.48,26.47,29.67,4.91,26.78,1023.60,2031.99,2211.58,2372.00,2573.62,349.97,351.72,26.96,0000 0000 0000 0000 000000
2014-12-20 06:08:11,0.10,3.83,0.00,21.43,26.45,29.65,4.81,26.89,1023.69,2031.99,2210.85,2371.27,2573.01,350.26,352.11,26.98,0000 0000 0000 0000 000000
2014-12-20 06:13:12,0.09,3.83,0.00,21.43,26.45,29.64,4.82,26.98,1023.62,2031.99,2209.90,2370.93,2572.44,349.62,351.50,27.01,0000 0000 0000 0000 000000
2014-12-20 06:18:13,0.10,3.83,0.00,21.43,26.43,29.62,4.88,26.98,1023.53,2031.99,2209.05,2370.18,2572.01,350.05,351.91,27.04,0000 0000 0000 0000 000000
2014-12-20 06:23:15,0.11,3.84,0.00,21.43,26.42,29.63,4.83,26.81,1023.51,2031.99,2208.21,2369.87,2571.31,349.48,351.51,27.07,0000 0000 0000 0000 000000
2014-12-20 06:28:16,0.09,3.84,0.00,21.44,26.41,29.62,4.83,26.94,1023.57,2031.99,2207.49,2369.10,2570.98,350.06,352.14,27.10,0000 0000 0000 0000 000000
2014-12-20 06:33:18,0.11,3.84,0.00,21.43,26.40,29.59,4.92,26.89,1023.49,2031.99,2206.64,2368.76,2570.18,350.39,352.34,27.13,0000 0000 0000 0000 000000
2014-12-20 06:38:19,0.09,3.85,0.00,21.42,26.40,29.59,4.87,26.99,1023.48,2032.00,2205.83,2368.05,2569.76,350.02,352.02,27.16,0000 0000 0000 0000 000000
2014-12-20 06:43:21,0.10,3.85,0.00,21.36,26.37,29.56,4.89,26.96,1023.48,2032.00,2205.05,2367.58,2569.03,350.30,352.17,27.19,0000 0000 0000 0000 000000
2014-12-20 06:48:22,0.09,3.85,0.00,21.37,26.37,29.58,4.82,26.93,1023.47,2032.01,2204.34,2367.02,2568.62,350.01,351.77,27.22,0000 0000 0000 0000 000000
2014-12-20 06:53:23,0.03,3.85,0.00,21.37,26.36,29.54,4.82,27.02,1023.46,2032.01,2203.89,2366.94,2568.02,349.81,351.77,27.25,0000 0000 0000 0000 000000
2014-12-20 06:58:24,0.13,3.86,0.00,21.39,26.35,29.55,4.84,27.15,1023.46,2032.04,2203.45,2366.23,2567.43,350.05,351.95,27.28,0000 0000 0000 0000 000000
2014-12-20 07:03:25,0.02,3.86,0.00,21.41,26.35,29.50,4.79,27.02,1023.45,2032.02,2202.90,2365.93,2566.86,349.70,351.92,27.31,0000 0000 0000 0000 000000
2014-12-20 07:08:27,0.14,3.86,0.00,21.37,26.33,29.50,4.85,26.91,1023.45,2032.03,2202.09,2365.18,2566.07,349.65,351.67,27.34,0000 0000 0000 0000 000000
2014-12-20 07:13:28,0.06,3.86,0.00,21.35,26.32,29.52,4.91,26.87,1023.47,2032.08,2201.60,2364.99,2565.94,350.37,352.37,27.37,0000 0000 0000 0000 000000
2014-12-20 07:18:30,0.11,3.87,0.00,21.35,26.31,29.49,4.87,26.83,1023.46,2032.09,2200.95,2364.42,2565.16,350.01,352.03,27.39,0000 0000 0000 0000 000000
2014-12-20 07:23:31,0.08,3.87,0.00,21.34,26.30,29.48,4.79,26.85,1023.47,2032.13,2200.13,2364.00,2564.93,349.54,351.65,27.42,0000 0000 0000 0000 000000
2014-12-20 07:28:32,0.12,3.87,0.00,21.31,26.29,29.49,4.86,26.86,1023.47,2032.10,2199.36,2363.44,2564.12,350.15,352.03,27.45,0000 0000 0000 0000 000000
2014-12-20 07:33:33,0.06,3.87,0.00,21.30,26.27,29.48,4.83,26.85,1023.48,2032.19,2198.68,2363.00,2563.97,349.77,351.82,27.48,0000 0000 0000 0000 000000
2014-12-20 07:38:35,0.14,3.88,0.00,21.32,26.27,29.46,4.84,27.00,1023.46,2032.33,2197.92,2362.59,2563.31,349.92,352.17,27.51,0000 0000 0000 0000 000000
2014-12-20 07:43:36,0.13,3.88,0.00,21.34,26.25,29.44,4.80,26.89,1023.45,2032.54,2197.09,2362.02,2563.00,349.94,352.08,27.54,0000 0000 0000 0000 000000
2014-12-20 07:48:37,0.09,3.89,0.00,21.31,26.25,29.45,4.92,26.96,1023.45,2032.92,2196.93,2361.94,2562.57,349.77,351.88,27.57,0000 0000 0000 0000 000000
2014-12-20 07:53:39,0.11,3.89,0.00,21.30,26.23,29.44,4.88,26.65,1023.45,2032.94,2196.19,2361.29,2562.02,350.57,352.52,27.60,0000 0000 0000 0000 000000
2014-12-20 07:58:40,0.08,3.89,0.00,21.26,26.22,29.42,4.83,26.77,1023.45,2032.95,2195.57,2361.00,2561.60,350.16,352.15,27.63,0000 0000 0000 0000 000000
2014-12-20 08:03:41,0.09,3.89,0.00,21.26,26.21,29.41,4.88,26.88,1023.45,2032.96,2194.97,2360.46,2561.03,350.19,352.37,27.66,0000 0000 0000 0000 000000
2014-12-20 08:08:42,0.06,3.90,0.00,21.22,26.20,29.41,4.89,26.78,1023.45,2032.96,2194.25,2360.01,2560.84,350.04,351.98,27.69,0000 0000 0000 0000 000000
2014-12-20 08:13:43,0.07,3.90,0.00,21.26,26.20,29.39,4.79,26.82,1023.45,2032.98,2193.78,2359.84,2560.09,349.10,351.21,27.72,0000 0000 0000 0000 000000
2014-12-20 08:18:45,0.09,3.90,0.00,21.26,26.18,29.40,4.88,26.88,1023.43,2032.99,2193.04,2359.09,2559.93,349.64,351.50,27.75,0000 0000 0000 0000 000000
2014-12-20 08:23:46,0.08,3.90,0.00,21.26,26.17,29.39,4.88,26.73,1023.40,2032.98,2192.43,2358.87,2559.11,350.09,352.23,27.78,0000 0000 0000 0000 000000
2014-12-20 08:28:47,0.68,3.92,0.00,21.20,26.17,29.40,4.83,26.77,1023.31,2032.99,2187.52,2355.47,2556.29,350.14,352.24,27.80,0000 0000 0000 0000 000000
2014-12-20 08:33:49,0.43,3.93,0.00,21.22,26.15,29.37,4.85,26.82,1023.41,2032.99,2184.55,2353.90,2554.13,349.94,351.95,27.83,0000 0000 0000 0000 000000
2014-12-20 08:38:51,0.09,3.94,0.00,21.25,26.15,29.37,4.88,27.11,1023.42,2032.99,2182.80,2352.79,2553.00,349.86,351.82,27.86,0000 0000 0000 0000 000000
2014-12-20 08:43:52,0.10,3.94,0.00,21.22,26.13,29.37,4.84,26.89,1023.28,2032.99,2182.03,2352.09,2552.66,350.18,352.27,27.89,0000 0000 0000 0000 000000
2014-12-20 08:48:53,0.06,3.94,0.00,21.22,26.12,29.33,4.87,26.79,1023.21,2032.99,2181.48,2351.99,2552.03,350.00,352.11,27.92,0000 0000 0000 0000 000000
2014-12-20 08:53:54,0.08,3.95,0.00,21.17,26.12,29.33,4.91,26.99,1023.38,2032.99,2180.91,2351.45,2551.86,349.90,352.13,27.95,0000 0000 0000 0000 000000
2014-12-20 08:58:55,0.08,3.95,0.00,21.15,26.10,29.33,4.88,26.98,1023.40,2032.99,2180.15,2351.01,2551.13,350.18,352.12,27.98,0000 0000 0000 0000 000000
2014-12-20 09:03:56,0.04,3.95,0.00,21.15,26.10,29.31,4.80,26.78,1023.39,2033.00,2179.87,2350.77,2550.92,349.99,351.91,28.01,0000 0000 0000 0000 000000
2014-12-20 09:08:58,0.11,3.95,0.00,21.16,26.08,29.29,4.91,26.99,1023.41,2033.01,2179.15,2350.10,2550.20,349.90,351.99,28.04,0000 0000 0000 0000 000000
2014-12-20 09:13:59,0.01,3.95,0.00,21.16,26.07,29.31,4.85,26.86,1023.40,2033.01,2178.94,2349.99,2549.99,349.85,352.06,28.07,0000 0000 0000 0000 000000
2014-12-20 09:19:00,0.14,3.96,0.00,21.12,26.07,29.32,4.87,26.88,1023.40,2033.01,2178.09,2349.44,2549.40,350.13,352.38,28.10,0000 0000 0000 0000 000000
2014-12-20 09:24:01,0.07,3.96,0.00,21.15,26.05,29.30,4.82,26.81,1023.39,2033.02,2177.23,2349.00,2548.99,349.75,351.81,28.13,0000 0000 0000 0000 000000
2014-12-20 09:29:03,0.10,3.96,0.00,21.13,26.05,29.27,4.80,26.79,1023.43,2033.02,2176.89,2348.58,2548.37,349.53,351.73,28.16,0000 0000 0000 0000 000000
2014-12-20 09:34:04,0.06,3.97,0.00,21.11,26.03,29.26,4.85,26.78,1023.45,2033.03,2176.12,2348.03,2548.00,350.06,352.27,28.19,0000 0000 0000 0000 000000
2014-12-20 09:39:05,0.07,3.97,0.00,21.09,26.02,29.24,4.89,27.02,1023.45,2033.17,2175.74,2347.98,2547.86,349.85,352.54,28.21,0000 0000 0000 0000 000000
2014-12-20 09:44:07,0.13,3.97,0.00,21.06,26.02,29.25,4.90,27.03,1023.45,2033.22,2175.04,2347.45,2547.11,350.15,352.64,28.24,0000 0000 0000 0000 000000
2014-12-20 09:49:08,0.20,3.98,0.00,21.09,26.00,29.22,4.87,26.87,1023.45,2033.47,2174.21,2346.84,2546.42,349.92,352.23,28.27,0000 0000 0000 0000 000000
2014-12-20 09:54:10,0.14,3.98,0.00,21.12,26.00,29.21,4.85,26.86,1023.45,2033.74,2173.07,2346.07,2546.00,349.81,352.24,28.30,0000 0000 0000 0000 000000
2014-12-20 09:59:11,0.04,3.98,0.00,21.06,25.98,29.22,4.96,26.95,1023.45,2033.84,2172.75,2346.00,2545.75,350.56,352.88,28.33,0000 0000 0000 0000 000000
2014-12-20 10:04:12,0.11,3.99,0.00,21.08,25.97,29.19,4.88,26.81,1023.44,2033.86,2172.04,2345.59,2545.07,349.92,351.96,28.36,0000 0000 0000 0000 000000
2014-12-20 10:09:13,0.06,3.99,0.00,21.03,25.97,29.21,4.94,26.93,1023.35,2033.86,2171.63,2345.02,2544.95,350.34,352.71,28.39,0000 0000 0000 0000 000000
2014-12-20 10:14:15,0.06,3.99,0.00,21.02,25.95,29.19,4.91,26.98,1023.16,2033.94,2171.01,2344.94,2544.18,349.76,352.02,28.42,0000 0000 0000 0000 000000
2014-12-20 10:19:16,0.08,3.99,0.00,21.03,25.95,29.17,4.89,27.02,1023.14,2033.96,2170.80,2344.26,2544.00,350.04,352.31,28.45,0000 0000 0000 0000 000000
2014-12-20 10:24:17,0.06,3.99,0.00,20.99,25.94,29.16,4.86,26.94,1023.24,2033.98,2170.05,2344.00,2543.73,349.94,352.43,28.48,0000 0000 0000 0000 000000
2014-12-20 10:29:18,0.07,4.00,0.00,21.01,25.92,29.18,4.86,26.99,1023.38,2033.97,2169.73,2343.76,2543.04,349.82,352.20,28.51,0000 0000 0000 0000 000000
2014-12-20 10:34:20,0.13,4.00,0.00,21.04,25.92,29.17,4.77,26.92,1023.36,2033.97,2168.71,2343.06,2542.68,349.60,352.01,28.54,0000 0000 0000 0000 000000
2014-12-20 10:39:21,0.11,4.00,0.00,21.02,25.91,29.16,4.87,27.01,1023.21,2033.98,2167.77,2342.61,2542.02,349.98,352.20,28.57,0000 0000 0000 0000 000000
2014-12-20 10:44:22,0.07,4.01,0.00,21.01,25.90,29.15,4.87,26.93,1023.10,2033.99,2167.06,2342.03,2541.70,349.83,351.96,28.60,0000 0000 0000 0000 000000
2014-12-20 10:49:24,0.05,4.01,0.00,21.02,25.90,29.12,4.93,27.01,1023.00,2033.99,2166.73,2341.95,2541.04,350.35,352.62,28.63,0000 0000 0000 0000 000000
2014-12-20 10:54:25,0.09,4.01,0.00,21.01,25.88,29.11,4.91,27.02,1022.98,2033.99,2166.04,2341.35,2540.95,350.08,352.14,28.65,0000 0000 0000 0000 000000
2014-12-20 10:59:26,0.06,4.01,0.00,21.03,25.87,29.11,4.94,26.95,1022.99,2033.99,2165.75,2341.00,2540.26,350.01,352.40,28.68,0000 0000 0000 0000 000000
2014-12-20 11:04:28,0.06,4.01,0.00,20.98,25.87,29.08,4.87,27.06,1022.97,2033.99,2164.90,2340.80,2540.00,350.27,352.33,28.71,0000 0000 0000 0000 000000
2014-12-20 11:09:29,0.11,4.02,0.00,20.97,25.86,29.09,4.85,26.93,1022.98,2034.00,2164.08,2340.07,2539.74,350.04,352.44,28.74,0000 0000 0000 0000 000000
2014-12-20 11:14:30,0.03,4.02,0.00,20.96,25.85,29.12,4.94,27.12,1022.97,2034.00,2163.88,2339.99,2539.04,350.02,352.21,28.77,0000 0000 0000 0000 000000
2014-12-20 11:19:31,0.10,4.02,0.00,20.94,25.85,29.09,4.93,26.93,1022.97,2034.00,2163.08,2339.43,2538.96,349.93,352.15,28.80,0000 0000 0000 0000 000000
2014-12-20 11:24:33,0.05,4.02,0.00,20.95,25.84,29.09,4.80,27.00,1022.97,2034.01,2162.99,2339.03,2538.40,349.96,352.20,28.83,0000 0000 0000 0000 000000
2014-12-20 11:29:34,0.06,4.03,0.00,20.94,25.82,29.09,4.89,26.94,1022.96,2034.03,2162.29,2338.98,2538.00,350.25,352.48,28.86,0000 0000 0000 0000 000000
2014-12-20 11:34:35,0.07,4.03,0.00,20.93,25.82,29.06,4.87,27.00,1022.96,2034.04,2161.87,2338.51,2537.80,349.85,352.10,28.89,0000 0000 0000 0000 000000
2014-12-20 11:39:36,0.13,4.03,0.00,20.94,25.82,29.05,4.87,27.11,1022.97,2034.03,2160.79,2337.95,2537.06,349.62,351.92,28.92,0000 0000 0000 0000 000000
2014-12-20 11:44:37,0.11,4.03,0.00,20.95,25.80,29.05,4.88,26.98,1022.96,2034.13,2160.02,2337.30,2536.79,350.13,352.46,28.95,0000 0000 0000 0000 000000
2014-12-20 11:49:38,0.06,4.04,0.00,20.96,25.80,29.03,4.85,26.96,1022.96,2034.23,2159.85,2337.00,2536.07,350.05,352.52,28.98,0000 0000 0000 0000 000000
2014-12-20 11:54:39,0.10,4.04,0.00,20.95,25.80,29.01,4.81,26.96,1022.96,2034.20,2159.10,2336.65,2535.71,349.98,352.34,29.01,0000 0000 0000 0000 000000
2014-12-20 11:59:40,0.22,4.04,0.00,20.97,25.79,29.02,4.89,27.05,1022.96,2034.21,2157.76,2335.75,2534.56,349.98,352.17,29.03,0000 0000 0000 0000 000000
2014-12-20 12:04:42,0.10,4.05,0.00,20.96,25.78,29.02,4.84,27.02,1022.96,2034.19,2156.53,2335.03,2533.88,349.72,351.91,29.06,0000 0000 0000 0000 000000
2014-12-20 12:09:43,0.10,4.05,0.00,20.93,25.77,29.05,4.94,27.00,1022.96,2034.21,2155.98,2334.56,2533.11,349.81,352.13,29.09,0000 0000 0000 0000 000000
2014-12-20 12:14:44,0.07,4.05,0.00,20.90,25.77,29.01,4.98,27.11,1022.96,2034.26,2155.20,2334.02,2532.94,350.45,352.75,29.12,0000 0000 0000 0000 000000
2014-12-20 12:19:45,0.14,4.06,0.00,20.88,25.77,29.04,4.95,27.04,1022.96,2034.33,2154.49,2333.66,2532.19,350.31,352.68,29.15,0000 0000 0000 0000 000000
2014-12-20 12:24:47,0.10,4.06,0.00,20.89,25.75,29.02,4.87,26.93,1022.96,2034.51,2154.02,2333.03,2531.97,349.94,352.24,29.18,0000 0000 0000 0000 000000
2014-12-20 12:29:48,0.10,4.06,0.00,20.89,25.75,29.01,4.85,27.06,1022.96,2034.73,2153.77,2332.96,2531.22,349.20,351.56,29.21,0000 0000 0000 0000 000000
2014-12-20 12:34:49,0.04,4.07,0.00,20.87,25.75,28.99,4.89,26.98,1022.96,2034.49,2153.05,2332.20,2530.86,350.15,352.43,29.24,0000 0000 0000 0000 000000
2014-12-20 12:39:50,0.05,4.07,0.00,20.86,25.73,29.01,4.88,27.05,1022.95,2034.32,2152.41,2331.94,2530.08,350.06,352.46,29.27,0000 0000 0000 0000 000000
2014-12-20 12:44:52,0.10,4.07,0.00,20.86,25.72,28.98,4.89,26.91,1022.96,2034.33,2151.82,2331.21,2529.86,350.00,352.35,29.30,0000 0000 0000 0000 000000
2014-12-20 12:49:53,0.12,4.07,0.00,20.84,25.72,28.96,4.86,26.90,1022.93,2034.50,2151.05,2330.99,2529.09,349.96,352.23,29.33,0000 0000 0000 0000 000000
2014-12-20 12:54:54,0.11,4.08,0.00,20.87,25.72,28.95,4.96,26.98,1022.86,2034.65,2150.58,2330.48,2528.94,350.75,353.03,29.36,0000 0000 0000 0000 000000
2014-12-20 12:59:56,0.11,4.08,0.00,20.89,25.70,28.96,4.86,26.82,1022.75,2034.73,2149.68,2330.00,2528.17,349.81,352.10,29.39,0000 0000 0000 0000 000000